Overview Statistics Trail Chart Weather Telemetry Raw packets
 

This is the latest recevied weather packets stored in our database for station/object K9MWD. If no packets are shown the sender has not sent any weather packets the latest 10 day(s).

<< 49 50 51 52 53 54 55 >>
Time Temp. Humidity Pressure Rain* Wind** Luminosity Snow
1788299592 36.67° C 41% 1013.5 hPa 0 mm - 373 W/m² -
1788299290 36.67° C 41% 1013.5 hPa 0 mm - 568 W/m² -
1788298989 36.11° C 41% 1013.5 hPa 0 mm - 480 W/m² -
1788298684 36.11° C 42% 1013.4 hPa 0 mm - 188 W/m² -
1788298383 36.11° C 42% 1013.5 hPa 0 mm - 190 W/m² -
1788298078 35.56° C 42% 1013.4 hPa 0 mm - 163 W/m² -
1788297775 35.56° C 42% 1013.7 hPa 0 mm - 147 W/m² -
1788297475 36.11° C 42% 1013.8 hPa 0 mm - 144 W/m² -
1788297171 36.11° C 42% 1013.8 hPa 0 mm - 150 W/m² -
1788296867 36.11° C 42% 1013.7 hPa 0 mm - 170 W/m² -
1788296563 36.11° C 41% 1013.9 hPa 0 mm - 188 W/m² -
1788296258 36.11° C 42% 1013.9 hPa 0 mm - 252 W/m² -
1788295958 36.11° C 41% 1014.1 hPa 0 mm - 251 W/m² -
1788295654 36.11° C 41% 1013.9 hPa 0 mm - 216 W/m² -
1788295350 36.67° C 41% 1014.2 hPa 0 mm - 169 W/m² -
1788295045 37.22° C 39% 1014.1 hPa 0 mm - 160 W/m² -
1788294745 37.78° C 40% 1014.2 hPa 0 mm - 213 W/m² -
1788294444 37.22° C 41% 1014.2 hPa 0 mm - 802 W/m² -
1788294140 37.78° C 41% 1014.3 hPa 0 mm - 818 W/m² -
1788293836 36.67° C 42% 1014.3 hPa 0 mm - 819 W/m² -
1788293535 37.22° C 41% 1014.2 hPa 0 mm - 856 W/m² -
1788293234 37.22° C 41% 1014.7 hPa 0 mm - 844 W/m² -
1788292930 37.22° C 41% 1014.5 hPa 0 mm - 833 W/m² -
1788292627 37.22° C 41% 1014.6 hPa 0 mm - 823 W/m² -
1788292322 36.11° C 43% 1014.7 hPa 0 mm - 852 W/m² -

* Rain latest hour (hover to see other rain measurements)
** Current wind speed in m/s (hover to see current wind gust speed)